Time,TemperatureF,DewpointF,PressureIn,WindDirection,WindDirectionDegrees,WindSpeedMPH,WindSpeedGustMPH,Humidity,HourlyPrecipIn,Conditions,Clouds,dailyrainin,SolarRadiationWatts/m^2,SoftwareType,DateUTC
2013-09-03 00:02:00,68.0,52.0,-100.00,North,7,8.0,17.0,57,0.00,,,0.00,1.000000,,2013-09-03 07:02:00,
2013-09-03 00:42:00,67.0,52.0,-100.00,NW,304,4.0,14.0,58,0.00,,,0.00,1.000000,,2013-09-03 07:42:00,
2013-09-03 00:52:00,67.0,52.0,-100.00,NW,304,4.0,14.0,58,0.00,,,0.00,1.000000,,2013-09-03 07:52:00,
2013-09-03 01:03:00,67.0,52.0,-100.00,NW,304,4.0,14.0,58,0.00,,,0.00,1.000000,,2013-09-03 08:03:00,
2013-09-03 01:42:00,66.0,51.0,-100.00,North,9,3.0,8.0,59,0.00,,,0.00,1.000000,,2013-09-03 08:42:00,
2013-09-03 01:52:00,66.0,51.0,-100.00,North,9,3.0,8.0,59,0.00,,,0.00,1.000000,,2013-09-03 08:52:00,
2013-09-03 02:01:00,66.0,51.0,-100.00,North,9,3.0,8.0,59,0.00,,,0.00,1.000000,,2013-09-03 09:01:00,
2013-09-03 02:43:00,63.0,49.0,-100.00,NE,46,1.0,6.0,61,0.00,,,0.00,1.000000,,2013-09-03 09:43:00,
2013-09-03 02:53:00,63.0,49.0,-100.00,NE,46,1.0,6.0,61,0.00,,,0.00,1.000000,,2013-09-03 09:53:00,
2013-09-03 03:03:00,63.0,49.0,-100.00,NE,46,1.0,6.0,61,0.00,,,0.00,1.000000,,2013-09-03 10:03:00,
2013-09-03 03:42:00,64.0,50.0,-100.00,WSW,250,4.0,7.0,60,0.00,,,0.00,1.000000,,2013-09-03 10:42:00,
2013-09-03 03:53:00,64.0,50.0,-100.00,WSW,250,4.0,7.0,60,0.00,,,0.00,1.000000,,2013-09-03 10:53:00,
2013-09-03 04:02:00,64.0,50.0,-100.00,WSW,250,4.0,7.0,60,0.00,,,0.00,1.000000,,2013-09-03 11:02:00,
2013-09-03 04:43:00,65.0,52.0,-100.00,WSW,239,4.0,7.0,62,0.00,,,0.00,1.000000,,2013-09-03 11:43:00,
2013-09-03 04:52:00,65.0,52.0,-100.00,WSW,239,4.0,7.0,62,0.00,,,0.00,1.000000,,2013-09-03 11:52:00,
2013-09-03 05:01:00,65.0,52.0,-100.00,WSW,239,4.0,7.0,62,0.00,,,0.00,1.000000,,2013-09-03 12:01:00,
2013-09-03 05:42:00,62.0,50.0,-100.00,SW,215,4.0,8.0,65,0.00,,,0.00,1.000000,,2013-09-03 12:42:00,
2013-09-03 05:52:00,62.0,50.0,-100.00,SW,215,4.0,8.0,65,0.00,,,0.00,1.000000,,2013-09-03 12:52:00,
2013-09-03 06:02:00,62.0,50.0,-100.00,SW,215,4.0,8.0,65,0.00,,,0.00,1.000000,,2013-09-03 13:02:00,
2013-09-03 06:42:00,62.0,53.0,-100.00,SSW,198,5.0,7.0,73,0.00,,,0.00,1.000000,,2013-09-03 13:42:00,
2013-09-03 06:52:00,62.0,53.0,-100.00,SSW,198,5.0,7.0,73,0.00,,,0.00,1.000000,,2013-09-03 13:52:00,
2013-09-03 07:01:00,62.0,53.0,-100.00,SSW,198,5.0,7.0,73,0.00,,,0.00,1.000000,,2013-09-03 14:01:00,
2013-09-03 07:42:00,61.0,53.0,-100.00,WSW,240,6.0,8.0,74,0.00,,,0.00,15.000000,,2013-09-03 14:42:00,
2013-09-03 07:52:00,61.0,53.0,-100.00,WSW,240,6.0,8.0,74,0.00,,,0.00,15.000000,,2013-09-03 14:52:00,
2013-09-03 08:02:00,61.0,53.0,-100.00,WSW,240,6.0,8.0,74,0.00,,,0.00,15.000000,,2013-09-03 15:02:00,
2013-09-03 08:43:00,64.0,53.0,-100.00,SW,224,5.0,8.0,68,0.00,,,0.00,155.000000,,2013-09-03 15:43:00,
2013-09-03 08:54:00,64.0,53.0,-100.00,SW,224,5.0,8.0,68,0.00,,,0.00,155.000000,,2013-09-03 15:54:00,
2013-09-03 09:04:00,64.0,53.0,-100.00,SW,224,5.0,8.0,68,0.00,,,0.00,155.000000,,2013-09-03 16:04:00,
2013-09-03 09:43:00,70.0,56.0,-100.00,South,170,4.0,8.0,61,0.00,,,0.00,325.000000,,2013-09-03 16:43:00,
2013-09-03 09:54:00,70.0,56.0,-100.00,South,170,4.0,8.0,61,0.00,,,0.00,325.000000,,2013-09-03 16:54:00,
2013-09-03 10:03:00,70.0,56.0,-100.00,South,170,4.0,8.0,61,0.00,,,0.00,325.000000,,2013-09-03 17:03:00,
2013-09-03 10:43:00,72.0,53.0,-100.00,SSE,159,6.0,8.0,52,0.00,,,0.00,488.000000,,2013-09-03 17:43:00,
2013-09-03 10:52:00,72.0,53.0,-100.00,SSE,159,6.0,8.0,52,0.00,,,0.00,488.000000,,2013-09-03 17:52:00,
2013-09-03 11:02:00,72.0,53.0,-100.00,SSE,159,6.0,8.0,52,0.00,,,0.00,488.000000,,2013-09-03 18:02:00,
2013-09-03 11:43:00,78.0,56.0,-100.00,NE,41,3.0,7.0,46,0.00,,,0.00,623.000000,,2013-09-03 18:43:00,
2013-09-03 11:52:00,78.0,56.0,-100.00,NE,41,3.0,7.0,46,0.00,,,0.00,623.000000,,2013-09-03 18:52:00,
2013-09-03 12:02:00,78.0,56.0,-100.00,NE,41,3.0,7.0,46,0.00,,,0.00,623.000000,,2013-09-03 19:02:00,
2013-09-03 12:42:00,81.0,54.0,-100.00,SE,143,4.0,10.0,40,0.00,,,0.00,717.000000,,2013-09-03 19:42:00,
2013-09-03 12:52:00,81.0,54.0,-100.00,SE,143,4.0,10.0,40,0.00,,,0.00,717.000000,,2013-09-03 19:52:00,
2013-09-03 13:02:00,81.0,54.0,-100.00,SE,143,4.0,10.0,40,0.00,,,0.00,717.000000,,2013-09-03 20:02:00,
2013-09-03 13:42:00,84.0,53.0,-100.00,South,169,4.0,12.0,35,0.00,,,0.00,768.000000,,2013-09-03 20:42:00,
2013-09-03 13:52:00,84.0,53.0,-100.00,South,169,4.0,12.0,35,0.00,,,0.00,768.000000,,2013-09-03 20:52:00,
2013-09-03 14:01:00,84.0,53.0,-100.00,South,169,4.0,12.0,35,0.00,,,0.00,768.000000,,2013-09-03 21:01:00,
2013-09-03 14:44:00,87.0,50.0,-100.00,NNW,342,8.0,14.0,28,0.00,,,0.00,773.000000,,2013-09-03 21:44:00,
2013-09-03 14:54:00,87.0,50.0,-100.00,NNW,342,8.0,14.0,28,0.00,,,0.00,773.000000,,2013-09-03 21:54:00,
2013-09-03 15:04:00,87.0,50.0,-100.00,NNW,342,8.0,14.0,28,0.00,,,0.00,773.000000,,2013-09-03 22:04:00,
2013-09-03 15:43:00,87.0,48.0,-100.00,North,353,7.0,17.0,26,0.00,,,0.00,708.000000,,2013-09-03 22:43:00,
2013-09-03 15:52:00,87.0,48.0,-100.00,North,353,7.0,17.0,26,0.00,,,0.00,708.000000,,2013-09-03 22:52:00,
2013-09-03 16:04:00,87.0,48.0,-100.00,North,353,7.0,17.0,26,0.00,,,0.00,708.000000,,2013-09-03 23:04:00,
2013-09-03 16:42:00,87.0,50.0,-100.00,North,354,8.0,17.0,28,0.00,,,0.00,535.000000,,2013-09-03 23:42:00,
2013-09-03 16:53:00,87.0,50.0,-100.00,North,354,8.0,17.0,28,0.00,,,0.00,535.000000,,2013-09-03 23:53:00,
2013-09-03 17:02:00,87.0,50.0,-100.00,North,354,8.0,17.0,28,0.00,,,0.00,535.000000,,2013-09-04 00:02:00,
2013-09-03 17:42:00,83.0,48.0,-100.00,NNW,334,10.0,19.0,30,0.00,,,0.00,339.000000,,2013-09-04 00:42:00,
2013-09-03 17:52:00,83.0,48.0,-100.00,NNW,334,10.0,19.0,30,0.00,,,0.00,339.000000,,2013-09-04 00:52:00,
2013-09-03 18:01:00,83.0,48.0,-100.00,NNW,334,10.0,19.0,30,0.00,,,0.00,339.000000,,2013-09-04 01:01:00,
2013-09-03 18:42:00,81.0,50.0,-100.00,North,349,10.0,20.0,34,0.00,,,0.00,222.000000,,2013-09-04 01:42:00,
2013-09-03 18:52:00,81.0,50.0,-100.00,North,349,10.0,20.0,34,0.00,,,0.00,222.000000,,2013-09-04 01:52:00,
2013-09-03 19:02:00,81.0,50.0,-100.00,North,349,10.0,20.0,34,0.00,,,0.00,222.000000,,2013-09-04 02:02:00,
2013-09-03 19:43:00,75.0,52.0,-100.00,NNW,343,10.0,19.0,44,0.00,,,0.00,34.000000,,2013-09-04 02:43:00,
2013-09-03 19:52:00,75.0,52.0,-100.00,NNW,343,10.0,19.0,44,0.00,,,0.00,34.000000,,2013-09-04 02:52:00,
2013-09-03 20:02:00,75.0,52.0,-100.00,NNW,343,10.0,19.0,44,0.00,,,0.00,34.000000,,2013-09-04 03:02:00,
2013-09-03 20:44:00,72.0,52.0,-100.00,NNW,345,11.0,19.0,50,0.00,,,0.00,6.000000,,2013-09-04 03:44:00,
2013-09-03 20:54:00,72.0,52.0,-100.00,NNW,345,11.0,19.0,50,0.00,,,0.00,6.000000,,2013-09-04 03:54:00,
2013-09-03 21:04:00,72.0,52.0,-100.00,NNW,345,11.0,19.0,50,0.00,,,0.00,6.000000,,2013-09-04 04:04:00,
2013-09-03 21:44:00,70.0,52.0,-100.00,North,357,6.0,14.0,53,0.00,,,0.00,1.000000,,2013-09-04 04:44:00,
2013-09-03 21:54:00,70.0,52.0,-100.00,North,357,6.0,14.0,53,0.00,,,0.00,1.000000,,2013-09-04 04:54:00,
2013-09-03 22:03:00,70.0,52.0,-100.00,North,357,6.0,14.0,53,0.00,,,0.00,1.000000,,2013-09-04 05:03:00,
2013-09-03 22:43:00,68.0,52.0,-100.00,North,6,4.0,13.0,57,0.00,,,0.00,1.000000,,2013-09-04 05:43:00,
2013-09-03 22:53:00,68.0,52.0,-100.00,North,6,4.0,13.0,57,0.00,,,0.00,1.000000,,2013-09-04 05:53:00,
2013-09-03 23:02:00,68.0,52.0,-100.00,North,6,4.0,13.0,57,0.00,,,0.00,1.000000,,2013-09-04 06:02:00,
2013-09-03 23:42:00,67.0,53.0,-100.00,SSW,212,2.0,8.0,61,0.00,,,0.00,1.000000,,2013-09-04 06:42:00,
2013-09-03 23:52:00,67.0,53.0,-100.00,SSW,212,2.0,8.0,61,0.00,,,0.00,1.000000,,2013-09-04 06:52:00,